WA2CLK Weather Reports


Display with metric or nautical units.
time (UTC)temp
F
wind
direction
speed
MPH
gust
MPH
rain 1hr
in
rain 24hr
in
rain mn
in
humidity
%
barometer
mb
20260505201933 73 144 5.0 11.0 0.00 0.00 0.00 67 1016.3
20260505201033 74 224 6.0 14.0 0.00 0.00 0.00 67 1016.3
20260505200133 74 226 5.0 10.0 0.00 0.00 0.00 66 1016.2
20260505195233 74 209 6.0 14.0 0.00 0.00 0.00 65 1016.3
20260505194333 74 146 8.0 17.0 0.00 0.00 0.00 65 1016.5
20260505193433 75 232 7.0 17.0 0.00 0.00 0.00 65 1016.7
20260505192533 75 128 7.0 15.0 0.00 0.00 0.00 64 1016.9
20260505191633 74 164 6.0 13.0 0.00 0.00 0.00 64 1017.1
20260505190733 75 196 6.0 16.0 0.00 0.00 0.00 63 1017.1
20260505185833 75 240 7.0 17.0 0.00 0.00 0.00 65 1017.2
20260505184933 75 236 6.0 11.0 0.00 0.00 0.00 65 1017.1
20260505184033 75 193 5.0 16.0 0.00 0.00 0.00 66 1017.1
20260505183133 75 241 5.0 10.0 0.00 0.00 0.00 65 1017.0
20260505182233 76 205 4.0 9.0 0.00 0.00 0.00 64 1017.1
20260505181333 76 169 6.0 14.0 0.00 0.00 0.00 64 1017.1
20260505180433 76 200 5.0 13.0 0.00 0.00 0.00 64 1017.5
20260505175533 77 197 7.0 14.0 0.00 0.00 0.00 63 1017.5
20260505174633 77 228 6.0 15.0 0.00 0.00 0.00 62 1017.5
20260505173733 77 231 5.0 14.0 0.00 0.00 0.00 63 1017.5
20260505172833 77 247 7.0 16.0 0.00 0.00 0.00 63 1017.6
20260505171933 76 247 5.0 11.0 0.00 0.00 0.00 63 1017.6
20260505171033 76 232 5.0 13.0 0.00 0.00 0.00 62 1017.9
20260505170133 76 130 4.0 13.0 0.00 0.00 0.00 63 1017.8
20260505165233 77 178 6.0 14.0 0.00 0.00 0.00 62 1017.9
20260505164333 77 221 6.0 16.0 0.00 0.00 0.00 62 1017.9
20260505163433 76 178 3.0 11.0 0.00 0.00 0.00 62 1018.0
20260505162533 77 107 5.0 13.0 0.00 0.00 0.00 62 1018.1
20260505160733 76 121 5.0 13.0 0.00 0.00 0.00 58 1018.2
20260505153133 79 224 5.0 12.0 0.00 0.00 0.00 61 1018.1
20260505152233 78 196 5.0 10.0 0.00 0.00 0.00 63 1018.2
20260505150433 80 218 4.0 13.0 0.00 0.00 0.00 61 1018.1
20260505140133 78 210 5.0 12.0 0.00 0.00 0.00 61 1017.9
20260505124933 76 229 2.0 4.0 0.00 0.00 0.00 69 1017.5
20260505124034 75 252 1.0 3.0 0.00 0.00 0.00 73 1017.7
20260505123133 74 257 1.0 3.0 0.00 0.00 0.00 74 1017.7
20260505122233 73 211 0.0 2.0 0.00 0.00 0.00 76 1017.7
20260505121333 71 209 0.0 0.0 0.00 0.00 0.00 77 1017.5
20260505120433 69 209 0.0 0.0 0.00 0.00 0.00 78 1017.5
20260505115533 68 209 0.0 0.0 0.00 0.00 0.00 79 1017.5
20260505114633 66 209 0.0 0.0 0.00 0.00 0.00 81 1017.5
20260505113733 64 209 0.0 0.0 0.00 0.00 0.00 85 1017.4
20260505112833 62 209 0.0 0.0 0.00 0.00 0.00 87 1017.2
20260505111933 60 209 0.0 0.0 0.00 0.00 0.00 90 1017.1
20260505110133 56 209 0.0 0.0 0.00 0.00 0.00 90 1016.8
20260505101633 56 209 0.0 0.0 0.00 0.00 0.00 89 1016.3
20260505100733 56 209 0.0 0.0 0.00 0.00 0.00 89 1016.3
20260505094933 56 209 0.0 0.0 0.00 0.00 0.00 89 1016.1
20260505093133 56 209 0.0 0.0 0.00 0.00 0.00 89 1016.0
20260505092233 57 209 0.0 0.0 0.00 0.00 0.00 88 1016.0
20260505091333 57 209 0.0 0.0 0.00 0.00 0.00 88 1016.0
20260505090433 57 209 0.0 0.0 0.00 0.00 0.00 88 1015.9
20260505085533 57 209 0.0 0.0 0.00 0.00 0.00 88 1015.7
20260505084633 57 209 0.0 0.0 0.00 0.00 0.00 88 1015.7
20260505082833 58 209 0.0 0.0 0.00 0.00 0.00 88 1015.7
20260505081933 58 209 0.0 0.0 0.00 0.00 0.00 88 1015.7
20260505081033 58 209 0.0 0.0 0.00 0.00 0.00 88 1015.7
20260505080133 58 209 0.0 0.0 0.00 0.00 0.00 87 1015.7
20260505075233 59 209 0.0 0.0 0.00 0.00 0.00 87 1015.7
20260505074333 59 209 0.0 0.0 0.00 0.00 0.00 86 1015.7
20260505073433 59 209 0.0 0.0 0.00 0.00 0.00 86 1015.6
20260505072533 59 209 0.0 1.0 0.00 0.00 0.00 86 1015.5
20260505071633 59 209 0.0 1.0 0.00 0.00 0.00 85 1015.6
20260505070733 60 209 0.0 0.0 0.00 0.00 0.00 85 1015.6
20260505065833 60 209 0.0 1.0 0.00 0.00 0.00 85 1015.7
20260505064933 60 209 0.0 1.0 0.00 0.00 0.00 84 1015.7
20260505064033 61 209 0.0 1.0 0.00 0.00 0.00 83 1015.8
20260505061334 62 209 0.0 1.0 0.00 0.00 0.00 81 1016.0
20260505060433 63 209 0.0 3.0 0.00 0.00 0.00 80 1016.1
20260505055533 63 209 1.0 3.0 0.00 0.00 0.00 80 1016.2
20260505054633 63 209 1.0 3.0 0.00 0.00 0.00 80 1016.4
20260505051933 64 197 2.0 4.0 0.00 0.00 0.00 80 1016.6
20260505051033 64 224 1.0 4.0 0.00 0.00 0.00 80 1016.6
20260505050133 64 215 2.0 4.0 0.00 0.00 0.00 80 1016.6
20260505041633 64 227 2.0 4.0 0.00 0.00 0.00 78 1016.5
20260505040733 64 235 2.0 3.0 0.00 0.00 0.00 77 1016.5
20260505034934 64 236 2.0 5.0 0.00 0.00 0.00 76 1016.7
20260505033133 64 234 2.0 5.0 0.00 0.00 0.00 74 1016.6
20260505032233 65 233 2.0 6.0 0.00 0.00 0.00 74 1016.7
20260505031333 65 209 2.0 7.0 0.00 0.00 0.00 73 1016.7
20260505030433 65 232 3.0 5.0 0.00 0.00 0.00 73 1016.7
20260505024633 65 225 3.0 7.0 0.00 0.00 0.00 73 1016.6
20260505023733 65 216 3.0 7.0 0.00 0.00 0.00 73 1016.7
20260505022833 65 209 4.0 10.0 0.00 0.00 0.00 73 1016.7
20260505021933 65 245 3.0 7.0 0.00 0.00 0.00 73 1016.8
20260505021033 65 214 3.0 8.0 0.00 0.00 0.00 73 1016.7
20260505015233 66 228 4.0 9.0 0.00 0.00 0.00 73 1016.7
20260505014333 66 223 4.0 8.0 0.00 0.00 0.00 72 1016.5
20260505012533 66 237 4.0 8.0 0.00 0.00 0.00 71 1016.3
20260505011633 66 230 4.0 8.0 0.00 0.00 0.00 71 1016.2
20260505010733 66 218 4.0 10.0 0.00 0.00 0.00 71 1016.1
20260505005833 66 203 5.0 11.0 0.00 0.00 0.00 71 1016.1
20260505004033 66 241 4.0 8.0 0.00 0.00 0.00 70 1015.9
20260505003133 66 241 4.0 9.0 0.00 0.00 0.00 69 1015.8
20260505002233 66 213 5.0 11.0 0.00 0.00 0.00 70 1015.8
20260505001333 66 226 5.0 10.0 0.00 0.00 0.00 69 1015.8
20260505000433 67 236 5.0 13.0 0.00 0.00 0.00 68 1015.8
20260504235534 67 251 5.0 15.0 0.00 0.00 0.00 67 1015.7
20260504234633 68 222 5.0 13.0 0.00 0.00 0.00 66 1015.7
20260504233733 68 230 5.0 14.0 0.00 0.00 0.00 65 1015.6
20260504232833 70 204 6.0 13.0 0.00 0.00 0.00 62 1015.6
20260504231933 73 185 6.0 15.0 0.00 0.00 0.00 59 1015.6
20260504231033 71 255 7.0 15.0 0.00 0.00 0.00 62 1015.7
20260504230133 69 215 6.0 13.0 0.00 0.00 0.00 64 1015.6
20260504225233 69 197 6.0 13.0 0.00 0.00 0.00 64 1015.6
20260504224333 69 243 8.0 16.0 0.00 0.00 0.00 64 1015.5
20260504223433 69 212 7.0 15.0 0.00 0.00 0.00 63 1015.5
20260504222533 69 130 6.0 13.0 0.00 0.00 0.00 64 1015.5
20260504221633 69 227 6.0 14.0 0.00 0.00 0.00 63 1015.5
20260504220733 69 223 5.0 18.0 0.00 0.00 0.00 64 1015.6
20260504215833 69 199 7.0 15.0 0.00 0.00 0.00 65 1015.5
20260504214033 70 198 7.0 17.0 0.00 0.00 0.00 64 1015.5
20260504212233 70 192 7.0 18.0 0.00 0.00 0.00 64 1015.7
20260504211333 70 210 6.0 15.0 0.00 0.00 0.00 64 1015.7
20260504210433 70 155 6.0 15.0 0.00 0.00 0.00 64 1015.6
20260504205533 70 182 8.0 19.0 0.00 0.00 0.00 64 1015.7
20260504204633 70 215 7.0 18.0 0.00 0.00 0.00 63 1015.7
20260504203733 71 211 7.0 17.0 0.00 0.00 0.00 64 1015.8
20260504202833 71 207 8.0 18.0 0.00 0.00 0.00 63 1015.8